Location: Limerick
(52.6650°N, 8.6230°W)
Time: 02:51:58
(UTC+01:00)

Amateur Radio Satellites - All Passes

Search period start: 29 May 2017 02:21
Search period end: 30 May 2017 02:21
Location: Limerick, 52.6650°N, 8.6230°W

Satellite Date Start Highest point End Downlink Frequencies (MHz)
Time Altitude Azimuth
AIST 2D 29 May 02:33:46 02:35:47 15° 301° (WNW) 02:37:49 435.315
VELOX 1 29 May 02:38:11 02:40:03 12° 274° (W) 02:41:55 145.980
MOZHAYETS 4 29 May 02:39:37 02:43:07 22° 58° (ENE) 02:46:38
ITUPSAT 1 29 May 02:45:34 02:49:59 38° 64° (ENE) 02:54:25 437.325
EO-79 29 May 02:46:16 02:49:53 27° 297° (WNW) 02:53:29 145.935-145.965
UKube-1 29 May 02:50:53 02:54:33 27° 265° (W) 02:58:14 .
ISS 29 May 03:01:14 03:03:27 17° 216° (SW) 03:05:39 437.550
DX 1 29 May 03:04:52 03:07:32 16° 271° (W) 03:10:13 434.975-435.025
BEESAT 29 May 03:17:04 03:21:48 69° 71° (ENE) 03:26:35 436.000
KKS-1 29 May 03:18:16 03:19:16 11° 49° (NE) 03:20:15 437.445
AO-7 29 May 03:18:51 03:22:54 14° 80° (E) 03:26:56 .
Gurwin Techsat 1B 29 May 03:22:45 03:27:59 53° 100° (E) 03:33:10 435.225
Oscar 19 29 May 03:25:57 03:31:10 84° 106° (ESE) 03:36:19 437.125/150
NANOSAT C BR1 29 May 03:31:01 03:33:11 14° 306° (NW) 03:35:21 145.865
CUBESAT XI-V 29 May 03:32:48 03:35:42 16° 54° (NE) 03:38:36 437.345
SO-50 29 May 03:32:51 03:36:03 18° 3° (N) 03:39:13 436.795
PCSat 29 May 03:36:50 03:42:15 60° 45° (NE) 03:47:38 145.827
POLYITAN 1 29 May 03:38:27 03:39:56 12° 308° (NW) 03:41:26 437.675
RS-15 29 May 03:40:35 03:52:47 79° 127° (SE) 04:05:09 29.354- 29.394
DUCHIFAT 1 29 May 03:40:38 03:42:29 13° 307° (NW) 03:44:19 145.980
BUGSAT 1 29 May 03:47:48 03:51:04 23° 299° (WNW) 03:54:23 437.445
AO-85 29 May 04:09:38 04:10:37 11° 111° (ESE) 04:11:37 145.980
MOZHAYETS 4 29 May 04:15:16 04:19:52 66° 258° (WSW) 04:24:31
YUBILEINY 29 May 04:15:47 04:23:16 30° 303° (WNW) 04:30:51 435.215
ITUPSAT 1 29 May 04:23:28 04:27:51 35° 264° (W) 04:32:16 437.325
ITAMSAT 1 29 May 04:32:55 04:37:43 36° 96° (E) 04:42:30 435.822/435.867
O/OREOS (USA 219) 29 May 04:44:23 04:48:53 58° 114° (ESE) 04:53:24 437.305
KKS-1 29 May 04:50:35 04:54:55 56° 69° (ENE) 04:59:16 437.445
BEESAT 29 May 04:56:39 05:00:05 19° 270° (W) 05:03:31 436.000
Gurwin Techsat 1B 29 May 05:03:05 05:07:43 31° 300° (WNW) 05:12:20 435.225
Oscar 19 29 May 05:06:10 05:09:55 21° 306° (NW) 05:13:38 437.125/150
CUBESAT XI-V 29 May 05:07:42 05:12:26 86° 74° (ENE) 05:17:11 437.345
AO-7 29 May 05:09:23 05:17:38 58° 103° (ESE) 05:25:50 .
SO-50 29 May 05:13:47 05:17:48 30° 27° (NNE) 05:21:49 436.795
STARS 29 May 05:14:36 05:18:45 45° 67° (ENE) 05:22:55 437.465
PCSat 29 May 05:20:37 05:25:24 32° 246° (WSW) 05:30:09 145.827
BEESAT 3 29 May 05:22:57 05:25:49 19° 116° (ESE) 05:28:45 437.485
AO-85 29 May 05:46:15 05:50:18 71° 130° (SE) 05:54:15 145.980
RS-15 29 May 05:54:12 06:06:19 56° 336° (NNW) 06:18:25 29.354- 29.394
STRAND 1 29 May 05:56:30 05:58:57 14° 48° (NE) 06:01:25 437.568
ITAMSAT 1 29 May 06:12:22 06:17:17 43° 296° (WNW) 06:22:11 435.822/435.867
YUBILEINY 29 May 06:22:53 06:24:02 10° 334° (NNW) 06:25:11 435.215
O/OREOS (USA 219) 29 May 06:24:43 06:28:38 27° 315° (NW) 06:32:33 437.305
KKS-1 29 May 06:28:26 06:31:49 21° 269° (W) 06:35:13 437.445
XW-2F 29 May 06:35:41 06:37:05 12° 86° (E) 06:38:29 145.980 - 146.000
XW-2C 29 May 06:38:21 06:40:13 13° 87° (E) 06:42:05 145.795 - 145.815
KAITUO 1B 29 May 06:39:30 06:40:12 10° 85° (E) 06:40:54 145.475/437.950
BEESAT 2 29 May 06:44:56 06:48:43 42° 124° (SE) 06:52:34 435.950
CUTE-I 29 May 06:46:54 06:50:33 18° 88° (E) 06:54:11 437.470
CUBESAT XI-V 29 May 06:47:44 06:50:27 15° 274° (W) 06:53:11 437.345
STARS 29 May 06:51:40 06:55:18 25° 266° (W) 06:58:57 437.465
SO-50 29 May 06:54:10 06:58:41 76° 230° (SW) 07:03:12 436.795
BEESAT 3 29 May 06:59:01 07:03:01 70° 317° (NW) 07:07:03 437.485
AO-7 29 May 07:02:28 07:10:18 47° 306° (NW) 07:18:09 .
LilacSat-2 29 May 07:18:14 07:21:48 33° 96° (E) 07:25:19 437.200
DOVE 4 29 May 07:18:49 07:22:55 55° 100° (E) 07:27:06 437.250
AO-85 29 May 07:27:38 07:31:03 26° 331° (NNW) 07:34:26 145.980
STRAND 1 29 May 07:32:10 07:37:10 61° 69° (ENE) 07:42:15 437.568
XW-2D 29 May 07:49:11 07:53:04 67° 102° (ESE) 07:56:54 145.860 - 145.880
HO-68 29 May 07:51:56 07:57:28 23° 88° (E) 08:02:57 435.675
ITAMSAT 1 29 May 07:54:44 07:55:31 10° 317° (NW) 07:56:18 435.822/435.867
XW-2B 29 May 07:57:13 08:01:06 79° 103° (ESE) 08:04:57 145.730 - 145.750
NUDT-PHONESAT 29 May 07:58:43 08:02:31 66° 103° (ESE) 08:06:15 437.300
XW-2F 29 May 08:07:55 08:11:48 83° 283° (WNW) 08:15:37 145.980 - 146.000
M-CUBED/EXP-1 PRIME 29 May 08:08:30 08:12:17 41° 62° (ENE) 08:15:48 437.505
RS-15 29 May 08:09:47 08:21:43 48° 9° (N) 08:33:21 29.354- 29.394
KAITUO 1B 29 May 08:10:59 08:14:50 89° 100° (E) 08:18:38 145.475/437.950
XW-2C 29 May 08:11:03 08:14:55 74° 288° (WNW) 08:18:46 145.795 - 145.815
CUTE 1.7 + AOD 2 29 May 08:11:21 08:14:40 21° 91° (E) 08:17:57 437.475
BEESAT 2 29 May 08:22:48 08:26:34 37° 325° (NW) 08:30:23 435.950
CUTE-I 29 May 08:25:55 08:31:18 84° 288° (WNW) 08:36:39 437.470
SO-50 29 May 08:36:08 08:38:25 14° 249° (WSW) 08:40:43 436.795
BEESAT 3 29 May 08:38:08 08:41:16 21° 338° (NNW) 08:44:24 437.485
FO-29 29 May 08:38:27 08:41:32 16° 47° (NE) 08:44:45 435.910
LilacSat-2 29 May 08:52:38 08:56:01 29° 295° (WNW) 08:59:22 437.200
ZACube-1 29 May 08:53:29 08:55:34 13° 85° (E) 08:57:40 437.345
SEEDS 29 May 08:55:05 08:59:01 36° 96° (E) 09:02:54 437.485
AO-7 29 May 08:55:58 09:01:12 19° 330° (NNW) 09:06:26 .
DOVE 4 29 May 08:57:14 09:00:21 21° 300° (WNW) 09:03:30 437.250
UNISAT 6 29 May 09:03:27 09:06:07 16° 55° (NE) 09:08:50 437.425
AO-85 29 May 09:10:24 09:12:41 15° 356° (N) 09:14:57 145.980
STRAND 1 29 May 09:12:39 09:16:46 24° 269° (W) 09:20:55 437.568
CUBEBUG 2 29 May 09:16:12 09:20:38 47° 99° (E) 09:25:10 437.445
XW-2A 29 May 09:20:12 09:23:41 88° 104° (ESE) 09:27:08 145.665 - 145.685
UWE-3 29 May 09:20:57 09:25:10 35° 96° (E) 09:29:25 435.000/436.395/437.385
NO-84 29 May 09:21:22 09:25:23 36° 143° (SE) 09:29:16 435.350 FM
XW-2D 29 May 09:24:24 09:26:48 16° 301° (WNW) 09:29:13 145.860 - 145.880
XW-2B 29 May 09:32:40 09:34:46 14° 303° (WNW) 09:36:53 145.730 - 145.750
NUDT-PHONESAT 29 May 09:33:38 09:35:59 16° 301° (WNW) 09:38:19 437.300
HO-68 29 May 09:38:53 09:46:10 90° 302° (WNW) 09:53:23 435.675
Oscar 11 29 May 09:42:51 09:46:28 25° 92° (E) 09:50:03 .
M-CUBED/EXP-1 PRIME 29 May 09:43:29 09:46:50 25° 258° (WSW) 09:50:00 437.505
XW-2F 29 May 09:43:48 09:45:17 12° 305° (NW) 09:46:46 145.980 - 146.000
AAUSAT CUBESAT 2 29 May 09:46:30 09:50:37 58° 101° (E) 09:54:41 437.432
KAITUO 1B 29 May 09:46:32 09:48:15 13° 304° (WNW) 09:49:58 145.475/437.950
CUTE 1.7 + AOD 2 29 May 09:46:37 09:50:48 51° 290° (WNW) 09:54:55 437.475
XW-2C 29 May 09:47:20 09:48:25 11° 306° (NW) 09:49:30 145.795 - 145.815
PRISM 29 May 09:55:21 09:59:20 49° 69° (ENE) 10:03:20 437.425
BEESAT 2 29 May 10:02:43 10:05:22 17° 348° (NNW) 10:08:02 435.950
TIGRISAT 29 May 10:05:33 10:09:41 46° 68° (ENE) 10:13:55 435.000
CUTE-I 29 May 10:07:01 10:10:38 19° 308° (NW) 10:14:16 437.470
AO-73 29 May 10:12:19 10:16:48 56° 100° (E) 10:21:19 145.935
BEESAT 3 29 May 10:17:52 10:20:13 15° 1° (N) 10:22:33 437.485
FO-29 29 May 10:20:28 10:25:38 71° 70° (ENE) 10:31:11 435.910
YUBILEINY 29 May 10:23:02 10:28:56 19° 44° (NE) 10:34:48 435.215
RS-15 29 May 10:23:54 10:36:20 75° 40° (NE) 10:48:14 29.354- 29.394
ZACube-1 29 May 10:27:58 10:32:33 84° 104° (ESE) 10:37:10 437.345
SEEDS 29 May 10:30:56 10:34:38 30° 296° (WNW) 10:38:18 437.485
EO-79 29 May 10:35:41 10:37:04 11° 52° (NE) 10:38:28 145.935-145.965
UNISAT 6 29 May 10:37:55 10:42:14 85° 252° (WSW) 10:46:42 437.425
EO-88 29 May 10:38:30 10:41:07 18° 91° (E) 10:43:42 145.990 - 145.960
AO-7 29 May 10:48:28 10:50:46 11° 358° (N) 10:53:03 .
AO-85 29 May 10:51:30 10:54:28 20° 21° (NNE) 10:57:27 145.980
CUBEBUG 2 29 May 10:53:11 10:57:05 28° 297° (WNW) 11:01:02 437.445
XW-2A 29 May 10:54:51 10:55:52 11° 303° (WNW) 10:56:53 145.665 - 145.685
UWE-3 29 May 10:57:26 11:01:38 37° 294° (WNW) 11:05:53 435.000/436.395/437.385
NO-84 29 May 10:58:28 11:02:49 83° 339° (NNW) 11:06:57 435.350 FM
DELFI C3 29 May 11:15:26 11:19:21 58° 101° (E) 11:23:13 145.870
NANOSAT C BR1 29 May 11:16:49 11:20:05 22° 60° (ENE) 11:23:22 145.865
Oscar 11 29 May 11:18:38 11:22:49 46° 292° (WNW) 11:26:59 .
AAUSAT CUBESAT 2 29 May 11:22:42 11:25:44 20° 300° (WNW) 11:28:44 437.432
POLYITAN 1 29 May 11:23:41 11:27:14 27° 63° (ENE) 11:30:50 437.675
DUCHIFAT 1 29 May 11:25:49 11:29:11 24° 61° (ENE) 11:32:35 145.980
HO-68 29 May 11:27:18 11:33:08 28° 311° (NW) 11:38:56 435.675
O/OREOS (USA 219) 29 May 11:30:59 11:33:16 13° 31° (NNE) 11:35:32 437.305
PRISM 29 May 11:31:43 11:34:53 21° 268° (W) 11:38:04 437.425
QB50P2 29 May 11:32:13 11:36:01 34° 65° (ENE) 11:39:51 145.880/145.840
BUGSAT 1 29 May 11:34:52 11:36:20 12° 53° (NE) 11:37:48 437.445
AIST 2D 29 May 11:39:04 11:42:33 59° 72° (ENE) 11:46:04 435.315
BEESAT 2 29 May 11:41:55 11:44:35 16° 12° (NNE) 11:47:14 435.950
TIGRISAT 29 May 11:43:04 11:46:36 25° 268° (W) 11:50:14 435.000
AO-73 29 May 11:49:06 11:52:44 24° 299° (WNW) 11:56:22 145.935
BEESAT 3 29 May 11:55:49 11:59:06 23° 25° (NNE) 12:02:22 437.485
ESTCUBE 1 29 May 12:00:03 12:02:54 16° 88° (E) 12:05:44 437.505/2401.250
ZACube-1 29 May 12:05:17 12:08:17 17° 303° (WNW) 12:11:16 437.345
FO-29 29 May 12:07:39 12:11:30 20° 273° (W) 12:15:31 435.910
EO-79 29 May 12:07:54 12:12:03 67° 72° (ENE) 12:16:16 145.935-145.965
EO-88 29 May 12:11:29 12:15:04 47° 290° (WNW) 12:18:36 145.990 - 145.960
UNISAT 6 29 May 12:17:59 12:19:42 12° 275° (W) 12:21:27 437.425
YUBILEINY 29 May 12:19:18 12:28:04 59° 72° (ENE) 12:36:46 435.215
AO-85 29 May 12:31:35 12:35:33 64° 43° (NE) 12:39:39 145.980
AO-7 29 May 12:35:36 12:40:13 16° 25° (NNE) 12:44:50 .
NO-84 29 May 12:36:29 12:40:41 61° 2° (N) 12:44:36 435.350 FM
RS-15 29 May 12:36:57 12:48:18 48° 247° (WSW) 12:59:09 29.354- 29.394
VELOX 1 29 May 12:44:15 12:45:59 12° 86° (E) 12:47:44 145.980
LO-87 29 May 12:45:05 12:48:38 65° 101° (E) 12:52:11 145.935 - 145.965
DELFI C3 29 May 12:51:01 12:53:46 18° 300° (WNW) 12:56:30 145.870
NANOSAT C BR1 29 May 12:51:26 12:55:31 52° 260° (W) 12:59:38 145.865
POLYITAN 1 29 May 12:58:55 13:02:54 41° 262° (W) 13:06:55 437.675
DUCHIFAT 1 29 May 13:00:37 13:04:39 46° 261° (W) 13:08:43 145.980
BUGSAT 1 29 May 13:07:00 13:10:59 74° 73° (ENE) 13:15:02 437.445
QB50P2 29 May 13:08:04 13:11:50 32° 264° (W) 13:15:39 145.880/145.840
O/OREOS (USA 219) 29 May 13:09:21 13:13:48 50° 54° (NE) 13:18:11 437.305
Oscar 19 29 May 13:09:58 13:14:47 39° 63° (ENE) 13:19:36 437.125/150
Gurwin Techsat 1B 29 May 13:11:08 13:15:37 29° 59° (ENE) 13:20:08 435.225
AIST 2D 29 May 13:14:13 13:16:08 14° 271° (W) 13:18:04 435.315
HO-68 29 May 13:18:16 13:18:32 10° 336° (NNW) 13:18:49 435.675
BEESAT 2 29 May 13:19:35 13:23:24 36° 35° (NE) 13:27:11 435.950
BEESAT 3 29 May 13:33:11 13:37:15 84° 47° (NE) 13:41:16 437.485
ESTCUBE 1 29 May 13:35:44 13:40:16 76° 287° (WNW) 13:44:45 437.505/2401.250
50 SAT 29 May 13:38:04 13:40:27 17° 92° (E) 13:42:48 437.505
EO-79 29 May 13:45:35 13:48:17 16° 271° (W) 13:51:00 145.935-145.965
SPROUT 29 May 13:50:52 13:55:03 49° 100° (E) 13:59:12 437.525
AO-85 29 May 14:12:31 14:15:37 21° 242° (WSW) 14:18:48 145.980
NO-84 29 May 14:14:20 14:18:26 78° 204° (SSW) 14:22:11 435.350 FM
YUBILEINY 29 May 14:16:33 14:24:37 42° 275° (W) 14:32:41 435.215
VELOX 1 29 May 14:18:45 14:23:10 84° 108° (ESE) 14:27:33 145.980
ITAMSAT 1 29 May 14:19:20 14:23:03 20° 53° (NE) 14:26:46 435.822/435.867
LO-87 29 May 14:19:40 14:21:39 14° 301° (WNW) 14:23:39 145.935 - 145.965
AO-7 29 May 14:23:21 14:30:49 39° 50° (NE) 14:38:20 .
UKube-1 29 May 14:31:06 14:35:01 32° 97° (E) 14:38:53 .
DX 1 29 May 14:44:41 14:48:59 60° 102° (ESE) 14:53:16 434.975-435.025
BUGSAT 1 29 May 14:44:46 14:46:52 14° 272° (W) 14:49:00 437.445
O/OREOS (USA 219) 29 May 14:49:12 14:52:58 26° 255° (WSW) 14:56:41 437.305
Oscar 19 29 May 14:49:17 14:54:07 39° 263° (W) 14:59:00 437.125/150
Gurwin Techsat 1B 29 May 14:50:02 14:55:17 59° 258° (WSW) 15:00:33 435.225
RS-15 29 May 14:53:55 14:57:11 11° 273° (W) 15:00:25 29.354- 29.394
BEESAT 2 29 May 14:57:22 15:01:15 44° 235° (SW) 15:05:07 435.950
50 SAT 29 May 15:10:17 15:13:31 41° 291° (WNW) 15:16:44 437.505
BEESAT 3 29 May 15:11:49 15:14:18 16° 246° (WSW) 15:16:45 437.485
BEESAT 29 May 15:13:16 15:14:49 11° 84° (E) 15:16:22 436.000
ESTCUBE 1 29 May 15:14:02 15:16:19 14° 307° (NW) 15:18:38 437.505/2401.250
SPROUT 29 May 15:27:16 15:30:43 24° 299° (WNW) 15:34:10 437.525
NO-84 29 May 15:52:33 15:55:30 21° 225° (SW) 15:58:18 435.350 FM
VELOX 1 29 May 15:56:18 15:59:03 17° 305° (NW) 16:01:48 145.980
ITAMSAT 1 29 May 15:56:44 16:01:55 86° 254° (WSW) 16:07:09 435.822/435.867
MOZHAYETS 4 29 May 16:04:48 16:08:16 20° 90° (E) 16:11:43
UKube-1 29 May 16:07:08 16:11:04 35° 295° (WNW) 16:14:58 .
AO-7 29 May 16:14:55 16:23:11 70° 253° (WSW) 16:31:32 .
ITUPSAT 1 29 May 16:17:18 16:21:50 38° 97° (E) 16:26:20 437.325
DX 1 29 May 16:21:33 16:24:50 21° 301° (WNW) 16:28:06 434.975-435.025
Gurwin Techsat 1B 29 May 16:36:01 16:36:24 10° 279° (W) 16:36:47 435.225
CUTE-I 29 May 16:38:17 16:40:19 12° 45° (NE) 16:42:22 437.470
HO-68 29 May 16:44:55 16:47:28 12° 29° (NNE) 16:50:02 435.675
BEESAT 29 May 16:48:39 16:53:29 71° 103° (ESE) 16:58:16 436.000
DOVE 4 29 May 16:54:15 16:57:05 17° 58° (ENE) 16:59:52 437.250
CUBESAT XI-V 29 May 16:59:30 17:02:07 15° 86° (E) 17:04:43 437.345
XW-2D 29 May 17:04:49 17:05:59 11° 54° (NE) 17:07:08 145.860 - 145.880
XW-2B 29 May 17:12:15 17:13:56 13° 56° (NE) 17:15:39 145.730 - 145.750
NUDT-PHONESAT 29 May 17:13:24 17:13:47 10° 54° (NE) 17:14:09 437.300
XW-2F 29 May 17:21:59 17:24:11 15° 58° (ENE) 17:26:24 145.980 - 146.000
KAITUO 1B 29 May 17:24:38 17:26:32 13° 57° (ENE) 17:28:26 145.475/437.950
XW-2C 29 May 17:25:10 17:27:37 16° 59° (ENE) 17:30:05 145.795 - 145.815
ITAMSAT 1 29 May 17:39:11 17:42:11 15° 274° (W) 17:45:12 435.822/435.867
MOZHAYETS 4 29 May 17:41:14 17:45:51 63° 290° (WNW) 17:50:26
ITUPSAT 1 29 May 17:55:15 17:59:38 36° 297° (WNW) 18:04:01 437.325
LilacSat-2 29 May 18:05:27 18:09:03 38° 68° (ENE) 18:12:41 437.200
KKS-1 29 May 18:11:48 18:16:07 48° 100° (E) 18:20:25 437.445
AO-7 29 May 18:12:10 18:17:33 18° 276° (W) 18:22:58 .
CUTE-I 29 May 18:14:08 18:19:15 51° 66° (ENE) 18:24:24 437.470
HO-68 29 May 18:26:54 18:33:11 35° 53° (NE) 18:39:30 435.675
BEESAT 29 May 18:27:13 18:30:48 21° 304° (WNW) 18:34:24 436.000
PCSat 29 May 18:27:20 18:29:59 14° 104° (ESE) 18:32:39 145.827
DOVE 4 29 May 18:29:55 18:34:22 75° 256° (WSW) 18:38:39 437.250
STARS 29 May 18:33:56 18:38:03 37° 98° (E) 18:42:08 437.465
CUBESAT XI-V 29 May 18:35:28 18:40:10 86° 284° (WNW) 18:44:47 437.345
XW-2D 29 May 18:35:39 18:39:29 76° 74° (ENE) 18:43:21 145.860 - 145.880
NUDT-PHONESAT 29 May 18:43:14 18:46:57 71° 73° (ENE) 18:50:44 437.300
XW-2B 29 May 18:43:42 18:47:32 88° 62° (ENE) 18:51:24 145.730 - 145.750
CUBEBUG 2 29 May 18:46:23 18:48:16 13° 53° (NE) 18:50:11 437.445
XW-2F 29 May 18:54:01 18:57:49 74° 256° (WSW) 19:01:42 145.980 - 146.000
KAITUO 1B 29 May 18:56:12 19:00:00 84° 258° (WSW) 19:03:50 145.475/437.950
XW-2C 29 May 18:57:35 19:01:23 65° 258° (WSW) 19:05:15 145.795 - 145.815
AAUSAT CUBESAT 2 29 May 19:09:09 19:11:10 13° 55° (NE) 19:13:11 437.432
CUTE 1.7 + AOD 2 29 May 19:09:15 19:13:05 32° 65° (ENE) 19:16:55 437.475
MOZHAYETS 4 29 May 19:20:13 19:22:09 12° 309° (NW) 19:24:04
STRAND 1 29 May 19:38:08 19:40:34 13° 84° (E) 19:43:00 437.568
AO-73 29 May 19:39:32 19:41:56 15° 54° (NE) 19:44:22 145.935
LilacSat-2 29 May 19:40:17 19:43:27 24° 267° (W) 19:46:40 437.200
KKS-1 29 May 19:48:47 19:52:28 26° 299° (WNW) 19:56:09 437.445
SEEDS 29 May 19:51:56 19:56:04 53° 70° (ENE) 20:00:14 437.485
ZACube-1 29 May 19:54:30 19:57:41 20° 59° (ENE) 20:00:55 437.345
CUTE-I 29 May 19:54:54 19:59:33 30° 266° (W) 20:04:14 437.470
XW-2A 29 May 19:56:45 20:00:07 76° 74° (ENE) 20:03:33 145.665 - 145.685
PCSat 29 May 20:07:02 20:12:25 69° 124° (ESE) 20:17:51 145.827
STARS 29 May 20:10:26 20:14:20 32° 297° (WNW) 20:18:14 437.465
DOVE 4 29 May 20:12:21 20:12:49 10° 275° (W) 20:13:17 437.250
XW-2D 29 May 20:12:26 20:14:11 13° 273° (W) 20:15:57 145.860 - 145.880
HO-68 29 May 20:13:19 20:20:30 70° 255° (WSW) 20:27:44 435.675
CUBESAT XI-V 29 May 20:14:03 20:16:52 16° 306° (NW) 20:19:41 437.345
Tancredo 1 29 May 20:17:55 20:19:50 15° 144° (SE) 20:21:46 437.200
NUDT-PHONESAT 29 May 20:19:32 20:21:20 13° 272° (W) 20:23:10 437.300
CUBEBUG 2 29 May 20:19:55 20:24:08 75° 73° (ENE) 20:28:29 437.445
XW-2B 29 May 20:21:17 20:22:20 11° 274° (W) 20:23:23 145.730 - 145.750
UWE-3 29 May 20:23:27 20:27:35 53° 70° (ENE) 20:31:52 435.000/436.395/437.385
DELFI C3 29 May 20:34:32 20:35:54 12° 54° (NE) 20:37:18 145.870
AAUSAT CUBESAT 2 29 May 20:41:47 20:45:59 82° 73° (ENE) 20:50:11 437.432
Oscar 11 29 May 20:42:54 20:46:57 39° 67° (ENE) 20:51:01 .
CUTE 1.7 + AOD 2 29 May 20:44:56 20:48:53 35° 264° (W) 20:52:52 437.475
AO-73 29 May 21:13:12 21:17:29 86° 74° (ENE) 21:21:56 145.935
STRAND 1 29 May 21:15:28 21:20:39 76° 104° (ESE) 21:25:48 437.568
ISS 29 May 21:19:56 21:22:50 29° 152° (SSE) 21:25:45 437.550
EO-88 29 May 21:21:54 21:24:40 20° 62° (ENE) 21:27:26 145.990 - 145.960
SEEDS 29 May 21:28:49 21:32:04 21° 269° (W) 21:35:19 437.485
ZACube-1 29 May 21:29:18 21:33:33 63° 259° (WSW) 21:37:57 437.345
XW-2A 29 May 21:33:01 21:33:23 10° 273° (W) 21:33:44 145.665 - 145.685
PCSat 29 May 21:51:17 21:56:15 35° 326° (NW) 22:01:14 145.827
Tancredo 1 29 May 21:52:06 21:55:05 49° 163° (SSE) 21:58:06 437.200
CUBEBUG 2 29 May 21:58:54 22:01:21 15° 273° (W) 22:03:50 437.445
UWE-3 29 May 22:01:07 22:04:23 21° 270° (W) 22:07:45 435.000/436.395/437.385
HO-68 29 May 22:05:14 22:09:35 17° 277° (W) 22:13:57 435.675
DELFI C3 29 May 22:06:01 22:10:00 75° 75° (ENE) 22:14:00 145.870
Oscar 11 29 May 22:19:22 22:23:11 29° 266° (W) 22:27:02 .
AAUSAT CUBESAT 2 29 May 22:19:55 22:22:00 13° 273° (W) 22:24:06 437.432
UNISAT 6 29 May 22:24:29 22:27:07 15° 87° (E) 22:29:44 437.425
M-CUBED/EXP-1 PRIME 29 May 22:49:46 22:53:06 86° 111° (ESE) 22:56:21 437.505
AO-73 29 May 22:52:15 22:54:24 13° 275° (W) 22:56:35 145.935
SO-50 29 May 22:53:38 22:57:58 44° 124° (SE) 23:02:18 436.795
EO-88 29 May 22:54:34 22:58:06 44° 261° (W) 23:01:40 145.990 - 145.960
STRAND 1 29 May 22:55:25 22:59:20 22° 304° (NW) 23:03:15 437.568
ISS 29 May 22:55:45 22:59:03 69° 171° (S) 23:02:20 437.550
ESTCUBE 1 29 May 23:04:40 23:08:38 30° 63° (ENE) 23:12:36 437.505/2401.250
PRISM 29 May 23:05:53 23:09:38 34° 97° (E) 23:13:20 437.425
FO-29 29 May 23:06:18 23:12:23 42° 97° (E) 23:19:07 435.910
SPROUT 29 May 23:16:32 23:18:33 13° 54° (NE) 23:20:35 437.525
LO-87 29 May 23:26:28 23:29:59 65° 73° (ENE) 23:33:31 145.935 - 145.965
TIGRISAT 29 May 23:27:04 23:31:32 46° 98° (E) 23:36:02 435.000
Tancredo 1 29 May 23:27:38 23:30:43 74° 181° (S) 23:33:47 437.200
PCSat 29 May 23:37:27 23:41:14 19° 351° (N) 23:45:02 145.827
YUBILEINY 29 May 23:37:43 23:41:19 13° 65° (ENE) 23:44:55 435.215
DELFI C3 29 May 23:43:15 23:45:17 14° 272° (W) 23:47:20 145.870
VELOX 1 29 May 23:46:11 23:49:43 24° 60° (ENE) 23:53:13 145.980
UKube-1 29 May 23:58:49 23:59:52 11° 50° (NE) 00:00:54 .
UNISAT 6 29 May 23:59:48 00:04:26 87° 285° (WNW) 00:09:07 437.425
DX 1 30 May 00:11:20 00:14:15 18° 56° (ENE) 00:17:11 434.975-435.025
50 SAT 30 May 00:15:58 00:18:27 19° 62° (ENE) 00:20:57 437.505
M-CUBED/EXP-1 PRIME 30 May 00:25:51 00:27:03 12° 311° (NW) 00:28:14 437.505
NANOSAT C BR1 30 May 00:30:20 00:33:11 17° 89° (E) 00:36:02 145.865
AIST 2D 30 May 00:31:31 00:34:47 32° 96° (E) 00:38:00 435.315
ISS 30 May 00:32:11 00:35:28 64° 191° (S) 00:38:44 437.550
SO-50 30 May 00:34:08 00:38:29 42° 325° (NW) 00:42:50 436.795
POLYITAN 1 30 May 00:37:49 00:41:11 22° 92° (E) 00:44:32 437.675
DUCHIFAT 1 30 May 00:39:00 00:42:02 19° 90° (E) 00:45:04 145.980
ESTCUBE 1 30 May 00:41:02 00:45:20 41° 262° (W) 00:49:40 437.505/2401.250
PRISM 30 May 00:41:17 00:44:52 30° 296° (WNW) 00:48:25 437.425
QB50P2 30 May 00:46:29 00:50:11 28° 94° (E) 00:53:52 145.880/145.840
SPROUT 30 May 00:49:32 00:53:47 79° 72° (ENE) 00:58:03 437.525
FO-29 30 May 00:51:29 00:57:34 51° 295° (WNW) 01:04:24 435.910
RS-15 30 May 00:58:35 01:06:47 22° 96° (E) 01:15:03 29.354- 29.394
LO-87 30 May 01:02:15 01:03:51 13° 272° (W) 01:05:28 145.935 - 145.965
Tancredo 1 30 May 01:03:23 01:06:17 38° 202° (SSW) 01:09:10 437.200
TIGRISAT 30 May 01:04:07 01:08:03 29° 298° (WNW) 01:12:02 435.000
VELOX 1 30 May 01:21:33 01:25:53 53° 259° (W) 01:30:13 145.980
EO-79 30 May 01:22:05 01:26:18 54° 101° (E) 01:30:29 145.935-145.965
PCSat 30 May 01:22:29 01:26:37 21° 17° (NNE) 01:30:43 145.827
YUBILEINY 30 May 01:27:35 01:35:57 54° 89° (E) 01:44:24 435.215
UKube-1 30 May 01:30:48 01:35:02 59° 70° (ENE) 01:39:18 .
UNISAT 6 30 May 01:37:43 01:40:31 16° 305° (NW) 01:43:21 437.425
DX 1 30 May 01:45:37 01:49:57 76° 255° (WSW) 01:54:20 434.975-435.025
50 SAT 30 May 01:47:47 01:51:05 42° 261° (W) 01:54:24 437.505
ITUPSAT 1 30 May 01:54:12 01:57:12 17° 53° (NE) 02:00:14 437.325
AIST 2D 30 May 02:04:55 02:07:54 25° 295° (WNW) 02:10:53 435.315
NANOSAT C BR1 30 May 02:05:06 02:09:20 65° 288° (WNW) 02:13:33 145.865
ISS 30 May 02:08:52 02:11:37 24° 211° (SSW) 02:14:21 437.550
POLYITAN 1 30 May 02:13:04 02:17:15 51° 291° (WNW) 02:21:24 437.675
